Regional Weather Roundup
Issued by NWS Portland, ME

Home | Current Version | Previous Version | Text Only | Print | Product List | Glossary On
Versions: 1 2 3 4 5 6 7 8 9 10 11 12 13 14 15 16 17 18 19 20 21 22 23 24 25 26 27 28 29 30 31 32 33 34 35 36 37 38 39 40 41 42 43 44 45 46 47 48 49 50
000
ASUS41 KGYX 030205
RWRGYX
WEATHER ROUNDUP FOR MAINE AND NEW HAMPSHIRE
NATIONAL WEATHER SERVICE GRAY ME
1000 PM EDT TUE SEP 02 2014

MEZ002-005-006-010-012-015-018-020-021-024-026-027-029-030300-
MAINE

CITY           SKY/WX    TMP DP  RH WIND       PRES   REMARKS
PORTLAND       CLEAR     70  67  90 S8        29.74F
SANFORD        CLEAR     72  68  88 SW6       29.75S
BAR HARBOR     CLOUDY    66  66 100 S5        29.77F VSB 1
WISCASSET      CLOUDY    69  67  93 S3        29.75F FOG
ROCKLAND       CLOUDY    63  63 100 NE3       29.74F VSB 1/2
FRYEBURG       PTCLDY    70  68  93 CALM      29.74S
LEWISTONAUBURN CLEAR     70  66  88 S5        29.73F
AUGUSTA        CLOUDY    69  68  96 S8        29.74F FOG
WATERVILLE     PTCLDY    70  66  88 S3        29.69F
BANGOR         FOG       68  67  96 S6        29.75F VSB 1/2
GREENVILLE       N/A     70  69  97 CALM      29.74F
MILLINOCKET    CLOUDY    71  68  90 VRB5      29.75F
HOULTON        CLOUDY    72  68  87 S8        29.74F
PRESQUE ISLE   MOCLDY    72  66  83 S3        29.71F
FRENCHVILLE    CLOUDY    67  66  97 S6        29.71F
CARIBOU        MOCLDY    71  68  90 S6        29.71F
$$

NHZ002-005-008-009-011-012-014-030300-
NEW HAMPSHIRE

CITY           SKY/WX    TMP DP  RH WIND       PRES   REMARKS
PORTSMOUTH     CLEAR     72  70  96 SW3       29.74F
ROCHESTER      CLOUDY    73  72  96 CALM      29.75S FOG
NASHUA         CLEAR     76  74  93 CALM      29.76F
MANCHESTER     PTCLDY    76  73  91 S5        29.74F
CONCORD        PTCLDY    74  73  97 S6        29.75S
LACONIA        CLEAR     75  72  88 S9        29.74R
PLYMOUTH       FAIR      68  68 100 CALM      29.73F FOG
BERLIN         MOCLDY    66  65  96 CALM      29.75F
WHITEFIELD     PTCLDY    69  65  86 CALM      29.75S
JAFFREY        CLEAR     75  71  87 S8        29.79F
LEBANON        PTCLDY    73  68  84 CALM      29.71F
MT WASHINGTON  MOCLDY    55  52  88 SW29G37     N/A
$$

VTZ005-007-008-030300-
VERMONT

CITY           SKY/WX    TMP DP  RH WIND       PRES   REMARKS
ST JOHNSBURY     N/A     75  69  81 MISG      29.72R
MONTPELIER     RAIN      69  68  96 NW8       29.80R FOG
BURLINGTON     RAIN      67  63  87 NE7       29.78R FOG
$$

MAZ007-012-024-CTZ003-RIZ002-NYZ038-NYZ072-030300-
SOUTHERN NEW ENGLAND AND NY

CITY           SKY/WX    TMP DP  RH WIND       PRES   REMARKS
BOSTON         PTCLDY    77  70  79 S8        29.76F
WORCESTER      CLEAR     74  71  91 SW13      29.81F
NANTUCKET      FOG       70  69  97 S12       29.83F VSB 1/2
PROVIDENCE     PTCLDY    77  71  82 SW10      29.80S
HARTFORD       PTCLDY    81  71  71 S10       29.76F
ALBANY         CLOUDY    77  67  71 NW21G26   29.78R
NEW YORK CITY  MOCLDY    86  70  58 SW12G21   29.80S HX  90
$$

ANZ081-ANZ082-ANZ150-NHZ014-MEZ023>029-030300-
COASTAL MARINE OBSERVATIONS

STATION/POSITION TIME  TEMP    WIND        PRES    WAVE
                       AIR SEA DIR/SP/G            HT/PER
                 (UTC) (F)     (DEG/KT/KT) (MB)    (FT/S)
MATINICUS ROCK   0100          180/ 15/ 16 1007.8S
PORTLAND WX BUOY 0150   67 62  190/  8/ 10 1006.9F   2/ 6
WELLS            0100   68 60  160/  6/  8 1006.5F
ISLE OF SHOALS   0100   74     190/ 15/ 15 1007.0F
JEFFREYS LEDGE   0121      68                N/A     2/ 6
CASHES LEDGE BUO 0150   70 68              1007.2F   3/ 6
$$

.............KEY..............
   WCI - WIND CHILL
   TC  - TEMPERATURE IN CELSIUS
   VSB - VISIBILITY IN MILES
   HX  - HEAT INDEX
   FAIR- INDICATES FEW OR NO CLOUDS BELOW 12,000 FT, WITH NO
         SIGNIFICANT WEATHER AND/OR OBSTRUCTIONS TO VISIBILITY.




USA.gov is the U.S. government's official web portal to all federal, state and local government web resources and services.